Time,TemperatureF,DewpointF,PressureIn,WindDirection,WindDirectionDegrees,WindSpeedMPH,WindSpeedGustMPH,Humidity,HourlyPrecipIn,Conditions,Clouds,dailyrainin,SoftwareType,DateUTC
2013-07-23 00:04:00,75.0,0.0,29.97,NW,318,3.0,7.0,72,-99.99,,,-99.99,,2013-07-23 07:04:00,
2013-07-23 00:12:00,75.0,0.0,29.97,NW,314,5.0,6.0,71,-99.99,,,-99.99,,2013-07-23 07:12:00,
2013-07-23 00:20:00,75.0,0.0,29.97,NW,316,3.0,5.0,70,-99.99,,,-99.99,,2013-07-23 07:20:00,
2013-07-23 00:28:00,74.0,0.0,29.97,NW,313,2.0,3.0,70,-99.99,,,-99.99,,2013-07-23 07:28:00,
2013-07-23 00:36:00,75.0,0.0,29.97,WNW,302,7.0,15.0,70,-99.99,,,-99.99,,2013-07-23 07:36:00,
2013-07-23 00:44:00,75.0,0.0,29.98,WNW,301,12.0,16.0,68,-99.99,,,-99.99,,2013-07-23 07:44:00,
2013-07-23 00:52:00,75.0,0.0,29.98,WNW,300,14.0,16.0,70,-99.99,,,-99.99,,2013-07-23 07:52:00,
2013-07-23 01:00:00,75.0,0.0,29.98,NW,305,8.0,14.0,70,-99.99,,,-99.99,,2013-07-23 08:00:00,
2013-07-23 01:08:00,74.0,0.0,29.99,WNW,297,7.0,13.0,74,-99.99,,,-99.99,,2013-07-23 08:08:00,
2013-07-23 01:16:00,74.0,0.0,29.99,WNW,298,8.0,12.0,71,-99.99,,,-99.99,,2013-07-23 08:16:00,
2013-07-23 01:24:00,74.0,0.0,30.00,NW,315,8.0,10.0,73,-99.99,,,-99.99,,2013-07-23 08:24:00,
2013-07-23 01:32:00,74.0,0.0,30.01,WNW,302,5.0,8.0,73,-99.99,,,-99.99,,2013-07-23 08:32:00,
2013-07-23 01:40:00,75.0,0.0,30.01,WNW,298,3.0,9.0,71,-99.99,,,-99.99,,2013-07-23 08:40:00,
2013-07-23 01:48:00,75.0,0.0,30.01,NW,312,2.0,6.0,70,-99.99,,,-99.99,,2013-07-23 08:48:00,
2013-07-23 01:56:00,75.0,0.0,30.01,WNW,302,2.0,5.0,73,-99.99,,,-99.99,,2013-07-23 08:56:00,
2013-07-23 02:04:00,75.0,0.0,30.01,NW,316,2.0,6.0,71,-99.99,,,-99.99,,2013-07-23 09:04:00,
2013-07-23 02:12:00,75.0,0.0,30.01,NW,315,3.0,3.0,72,-99.99,,,-99.99,,2013-07-23 09:12:00,
2013-07-23 02:20:00,75.0,0.0,30.01,NW,308,2.0,3.0,73,-99.99,,,-99.99,,2013-07-23 09:20:00,
2013-07-23 02:28:00,74.0,0.0,30.01,NW,313,2.0,5.0,73,-99.99,,,-99.99,,2013-07-23 09:28:00,
2013-07-23 02:36:00,74.0,0.0,30.00,NW,314,1.0,3.0,74,-99.99,,,-99.99,,2013-07-23 09:36:00,
2013-07-23 02:44:00,74.0,0.0,30.00,NW,311,0.0,5.0,75,-99.99,,,-99.99,,2013-07-23 09:44:00,
2013-07-23 02:52:00,74.0,0.0,30.00,NW,315,2.0,6.0,72,-99.99,,,-99.99,,2013-07-23 09:52:00,
2013-07-23 03:00:00,74.0,0.0,30.01,NW,318,0.0,5.0,72,-99.99,,,-99.99,,2013-07-23 10:00:00,
2013-07-23 03:08:00,77.0,0.0,30.00,NW,319,3.0,10.0,58,-99.99,,,-99.99,,2013-07-23 10:08:00,
2013-07-23 03:16:00,78.0,0.0,30.00,ENE,65,20.0,20.0,55,-99.99,,,-99.99,,2013-07-23 10:16:00,
2013-07-23 03:24:00,77.0,0.0,30.00,NNE,13,7.0,21.0,52,-99.99,,,-99.99,,2013-07-23 10:24:00,
2013-07-23 03:32:00,77.0,0.0,30.01,NW,316,9.0,15.0,58,-99.99,,,-99.99,,2013-07-23 10:32:00,
2013-07-23 03:40:00,76.0,0.0,30.01,NW,315,6.0,13.0,65,-99.99,,,-99.99,,2013-07-23 10:40:00,
2013-07-23 03:48:00,76.0,0.0,30.01,NW,319,8.0,12.0,68,-99.99,,,-99.99,,2013-07-23 10:48:00,
2013-07-23 03:56:00,76.0,0.0,30.01,NW,318,6.0,9.0,68,-99.99,,,-99.99,,2013-07-23 10:56:00,
2013-07-23 04:04:00,75.0,0.0,30.01,NW,317,5.0,8.0,70,-99.99,,,-99.99,,2013-07-23 11:04:00,
2013-07-23 04:12:00,75.0,0.0,30.01,NW,321,1.0,9.0,68,-99.99,,,-99.99,,2013-07-23 11:12:00,
2013-07-23 04:20:00,75.0,0.0,30.00,NW,319,1.0,5.0,71,-99.99,,,-99.99,,2013-07-23 11:20:00,
2013-07-23 04:28:00,74.0,0.0,30.01,NW,320,0.0,2.0,71,-99.99,,,-99.99,,2013-07-23 11:28:00,
2013-07-23 04:37:00,74.0,0.0,30.00,WNW,296,5.0,6.0,74,-99.99,,,-99.99,,2013-07-23 11:37:00,
2013-07-23 04:44:00,74.0,0.0,30.00,NW,315,3.0,6.0,69,-99.99,,,-99.99,,2013-07-23 11:44:00,
2013-07-23 04:52:00,74.0,0.0,29.99,NW,312,3.0,6.0,68,-99.99,,,-99.99,,2013-07-23 11:52:00,
2013-07-23 05:00:00,73.0,0.0,29.99,NW,306,5.0,7.0,68,-99.99,,,-99.99,,2013-07-23 12:00:00,
2013-07-23 05:08:00,73.0,0.0,29.99,WNW,299,5.0,7.0,72,-99.99,,,-99.99,,2013-07-23 12:08:00,
2013-07-23 05:16:00,73.0,0.0,29.99,WNW,293,8.0,8.0,72,-99.99,,,-99.99,,2013-07-23 12:16:00,
2013-07-23 05:24:00,73.0,0.0,29.99,NW,307,5.0,8.0,69,-99.99,,,-99.99,,2013-07-23 12:24:00,
2013-07-23 05:32:00,72.0,0.0,29.99,WNW,303,7.0,8.0,71,-99.99,,,-99.99,,2013-07-23 12:32:00,
2013-07-23 05:40:00,72.0,0.0,29.99,WNW,300,5.0,7.0,72,-99.99,,,-99.99,,2013-07-23 12:40:00,
2013-07-23 05:48:00,72.0,0.0,29.99,WNW,298,5.0,7.0,73,-99.99,,,-99.99,,2013-07-23 12:48:00,
2013-07-23 05:56:00,71.0,0.0,30.00,WNW,301,5.0,7.0,71,-99.99,,,-99.99,,2013-07-23 12:56:00,
2013-07-23 06:04:00,72.0,0.0,30.00,NW,307,3.0,7.0,72,-99.99,,,-99.99,,2013-07-23 13:04:00,
2013-07-23 06:12:00,72.0,0.0,30.00,WNW,299,3.0,6.0,69,-99.99,,,-99.99,,2013-07-23 13:12:00,
2013-07-23 06:20:00,72.0,0.0,30.00,NW,310,2.0,6.0,70,-99.99,,,-99.99,,2013-07-23 13:20:00,
2013-07-23 06:28:00,73.0,0.0,30.00,NW,310,3.0,5.0,68,-99.99,,,-99.99,,2013-07-23 13:28:00,
2013-07-23 06:36:00,74.0,0.0,30.00,NW,314,3.0,5.0,68,-99.99,,,-99.99,,2013-07-23 13:36:00,
2013-07-23 06:44:00,75.0,0.0,30.00,NW,315,2.0,5.0,63,-99.99,,,-99.99,,2013-07-23 13:44:00,
2013-07-23 06:52:00,75.0,0.0,30.00,NW,314,2.0,5.0,65,-99.99,,,-99.99,,2013-07-23 13:52:00,
2013-07-23 07:00:00,76.0,0.0,30.01,NW,309,3.0,5.0,62,-99.99,,,-99.99,,2013-07-23 14:00:00,
2013-07-23 07:08:00,78.0,0.0,30.01,NW,306,1.0,3.0,57,-99.99,,,-99.99,,2013-07-23 14:08:00,
2013-07-23 07:16:00,78.0,0.0,30.01,NW,306,2.0,3.0,59,-99.99,,,-99.99,,2013-07-23 14:16:00,
2013-07-23 07:24:00,79.0,0.0,30.01,NW,304,1.0,3.0,56,-99.99,,,-99.99,,2013-07-23 14:24:00,
2013-07-23 07:32:00,79.0,0.0,30.01,NW,306,2.0,3.0,56,-99.99,,,-99.99,,2013-07-23 14:32:00,
2013-07-23 07:40:00,80.0,0.0,30.01,NW,306,1.0,5.0,52,-99.99,,,-99.99,,2013-07-23 14:40:00,
2013-07-23 07:48:00,80.0,0.0,30.01,WNW,301,0.0,3.0,53,-99.99,,,-99.99,,2013-07-23 14:48:00,
2013-07-23 07:56:00,81.0,0.0,30.02,West,281,0.0,2.0,50,-99.99,,,-99.99,,2013-07-23 14:56:00,
2013-07-23 08:04:00,81.0,0.0,30.01,West,264,1.0,3.0,49,-99.99,,,-99.99,,2013-07-23 15:04:00,
2013-07-23 08:12:00,82.0,0.0,30.01,WNW,282,2.0,3.0,49,-99.99,,,-99.99,,2013-07-23 15:12:00,
2013-07-23 08:20:00,82.0,0.0,30.02,WNW,285,0.0,3.0,50,-99.99,,,-99.99,,2013-07-23 15:20:00,
2013-07-23 08:28:00,84.0,0.0,30.02,NW,305,2.0,3.0,45,-99.99,,,-99.99,,2013-07-23 15:28:00,
2013-07-23 08:36:00,83.0,0.0,30.02,WNW,287,2.0,3.0,50,-99.99,,,-99.99,,2013-07-23 15:36:00,
2013-07-23 08:44:00,84.0,0.0,30.02,WNW,295,1.0,3.0,45,-99.99,,,-99.99,,2013-07-23 15:44:00,
2013-07-23 08:52:00,84.0,0.0,30.02,WNW,301,0.0,6.0,46,-99.99,,,-99.99,,2013-07-23 15:52:00,
2013-07-23 09:05:00,85.0,0.0,30.02,NW,313,0.0,5.0,46,-99.99,,,-99.99,,2013-07-23 16:05:00,
2013-07-23 09:12:00,87.0,0.0,30.02,WNW,300,2.0,5.0,41,-99.99,,,-99.99,,2013-07-23 16:12:00,
2013-07-23 09:20:00,86.0,0.0,30.02,NW,316,2.0,5.0,42,-99.99,,,-99.99,,2013-07-23 16:20:00,
2013-07-23 09:28:00,87.0,0.0,30.02,NW,317,3.0,5.0,43,-99.99,,,-99.99,,2013-07-23 16:28:00,
2013-07-23 09:36:00,87.0,0.0,30.02,NW,309,5.0,5.0,42,-99.99,,,-99.99,,2013-07-23 16:36:00,
2013-07-23 09:44:00,88.0,0.0,30.02,NW,311,0.0,6.0,39,-99.99,,,-99.99,,2013-07-23 16:44:00,
2013-07-23 09:52:00,89.0,0.0,30.02,NW,319,2.0,5.0,40,-99.99,,,-99.99,,2013-07-23 16:52:00,
2013-07-23 10:00:00,89.0,0.0,30.02,NW,305,5.0,5.0,37,-99.99,,,-99.99,,2013-07-23 17:00:00,
2013-07-23 10:08:00,88.0,0.0,30.02,WSW,257,0.0,5.0,39,-99.99,,,-99.99,,2013-07-23 17:08:00,
2013-07-23 10:16:00,90.0,0.0,30.02,NW,316,0.0,8.0,38,-99.99,,,-99.99,,2013-07-23 17:16:00,
2013-07-23 10:24:00,92.0,0.0,30.02,NW,304,5.0,9.0,35,-99.99,,,-99.99,,2013-07-23 17:24:00,
2013-07-23 10:32:00,91.0,0.0,30.02,NW,311,3.0,9.0,37,-99.99,,,-99.99,,2013-07-23 17:32:00,
2013-07-23 10:40:00,89.0,0.0,30.02,South,185,0.0,6.0,36,-99.99,,,-99.99,,2013-07-23 17:40:00,
2013-07-23 10:48:00,91.0,0.0,30.02,NE,34,0.0,6.0,35,-99.99,,,-99.99,,2013-07-23 17:48:00,
2013-07-23 10:56:00,92.0,0.0,30.02,NW,320,2.0,7.0,37,-99.99,,,-99.99,,2013-07-23 17:56:00,
2013-07-23 11:04:00,89.0,0.0,30.02,NE,56,1.0,6.0,40,-99.99,,,-99.99,,2013-07-23 18:04:00,
2013-07-23 11:09:00,89.0,0.0,30.02,NE,56,1.0,6.0,40,-99.99,,,-99.99,,2013-07-23 18:09:00,
2013-07-23 11:16:00,92.0,0.0,30.01,NW,313,6.0,8.0,35,-99.99,,,-99.99,,2013-07-23 18:16:00,
2013-07-23 11:28:00,94.0,0.0,30.01,NW,313,3.0,10.0,35,-99.99,,,-99.99,,2013-07-23 18:28:00,
2013-07-23 11:33:00,94.0,0.0,30.01,NW,317,5.0,9.0,32,-99.99,,,-99.99,,2013-07-23 18:33:00,
2013-07-23 11:40:00,92.0,0.0,30.01,WSW,249,0.0,8.0,36,-99.99,,,-99.99,,2013-07-23 18:40:00,
2013-07-23 11:49:00,95.0,0.0,30.00,NW,308,7.0,9.0,32,-99.99,,,-99.99,,2013-07-23 18:49:00,
2013-07-23 12:00:00,95.0,0.0,30.00,WNW,303,1.0,12.0,34,-99.99,,,-99.99,,2013-07-23 19:00:00,
2013-07-23 12:08:00,96.0,0.0,30.00,NW,314,9.0,12.0,33,-99.99,,,-99.99,,2013-07-23 19:08:00,
2013-07-23 12:21:00,95.0,0.0,29.99,NW,318,7.0,9.0,34,-99.99,,,-99.99,,2013-07-23 19:21:00,
2013-07-23 12:28:00,96.0,0.0,29.99,NW,311,2.0,9.0,33,-99.99,,,-99.99,,2013-07-23 19:28:00,
2013-07-23 12:37:00,97.0,0.0,29.98,NW,313,8.0,10.0,29,-99.99,,,-99.99,,2013-07-23 19:37:00,
2013-07-23 12:44:00,94.0,0.0,29.98,SSE,149,2.0,9.0,33,-99.99,,,-99.99,,2013-07-23 19:44:00,
2013-07-23 12:49:00,96.0,0.0,29.98,WNW,300,5.0,10.0,31,-99.99,,,-99.99,,2013-07-23 19:49:00,
2013-07-23 12:56:00,98.0,0.0,29.98,NW,314,9.0,12.0,29,-99.99,,,-99.99,,2013-07-23 19:56:00,
2013-07-23 13:04:00,96.0,0.0,29.97,NW,318,5.0,10.0,35,-99.99,,,-99.99,,2013-07-23 20:04:00,
2013-07-23 13:12:00,98.0,0.0,29.97,NW,316,7.0,10.0,27,-99.99,,,-99.99,,2013-07-23 20:12:00,
2013-07-23 13:20:00,97.0,0.0,29.97,WNW,291,3.0,8.0,28,-99.99,,,-99.99,,2013-07-23 20:20:00,
2013-07-23 13:28:00,97.0,0.0,29.96,NW,316,5.0,12.0,27,-99.99,,,-99.99,,2013-07-23 20:28:00,
2013-07-23 13:36:00,99.0,0.0,29.96,NW,312,10.0,14.0,30,-99.99,,,-99.99,,2013-07-23 20:36:00,
2013-07-23 13:44:00,99.0,0.0,29.96,NW,308,2.0,14.0,26,-99.99,,,-99.99,,2013-07-23 20:44:00,
2013-07-23 13:52:00,101.0,0.0,29.95,NW,313,9.0,12.0,29,-99.99,,,-99.99,,2013-07-23 20:52:00,
2013-07-23 14:04:00,96.0,0.0,29.95,NW,315,9.0,14.0,31,-99.99,,,-99.99,,2013-07-23 21:04:00,
2013-07-23 14:12:00,98.0,0.0,29.94,NW,319,6.0,14.0,28,-99.99,,,-99.99,,2013-07-23 21:12:00,
2013-07-23 14:20:00,100.0,0.0,29.95,NW,319,2.0,15.0,26,-99.99,,,-99.99,,2013-07-23 21:20:00,
2013-07-23 14:28:00,101.0,0.0,29.95,NW,317,3.0,13.0,25,-99.99,,,-99.99,,2013-07-23 21:28:00,
2013-07-23 14:36:00,100.0,0.0,29.94,NW,320,5.0,9.0,25,-99.99,,,-99.99,,2013-07-23 21:36:00,
2013-07-23 14:44:00,97.0,0.0,29.93,WNW,300,9.0,12.0,29,-99.99,,,-99.99,,2013-07-23 21:44:00,
2013-07-23 14:52:00,98.0,0.0,29.94,NW,304,3.0,12.0,28,-99.99,,,-99.99,,2013-07-23 21:52:00,
2013-07-23 15:00:00,100.0,0.0,29.93,NW,315,13.0,13.0,26,-99.99,,,-99.99,,2013-07-23 22:00:00,
2013-07-23 15:08:00,101.0,0.0,29.93,NW,317,3.0,15.0,27,-99.99,,,-99.99,,2013-07-23 22:08:00,
2013-07-23 15:16:00,99.0,0.0,29.93,NW,311,3.0,15.0,27,-99.99,,,-99.99,,2013-07-23 22:16:00,
2013-07-23 15:24:00,99.0,0.0,29.92,WNW,283,3.0,8.0,28,-99.99,,,-99.99,,2013-07-23 22:24:00,
2013-07-23 15:32:00,96.0,0.0,29.92,WSW,246,5.0,17.0,32,-99.99,,,-99.99,,2013-07-23 22:32:00,
2013-07-23 15:40:00,96.0,0.0,29.92,SSW,192,0.0,17.0,30,-99.99,,,-99.99,,2013-07-23 22:40:00,
2013-07-23 15:48:00,97.0,0.0,29.92,WSW,241,6.0,15.0,28,-99.99,,,-99.99,,2013-07-23 22:48:00,
2013-07-23 15:56:00,95.0,0.0,29.91,SW,234,8.0,18.0,31,-99.99,,,-99.99,,2013-07-23 22:56:00,
2013-07-23 16:04:00,95.0,0.0,29.91,WSW,250,8.0,18.0,31,-99.99,,,-99.99,,2013-07-23 23:04:00,
2013-07-23 16:12:00,95.0,0.0,29.90,West,266,8.0,14.0,30,-99.99,,,-99.99,,2013-07-23 23:12:00,
2013-07-23 16:21:00,96.0,0.0,29.90,West,267,7.0,14.0,29,-99.99,,,-99.99,,2013-07-23 23:21:00,
2013-07-23 16:28:00,95.0,0.0,29.90,SW,236,7.0,13.0,32,-99.99,,,-99.99,,2013-07-23 23:28:00,
2013-07-23 16:36:00,95.0,0.0,29.90,WSW,248,6.0,13.0,30,-99.99,,,-99.99,,2013-07-23 23:36:00,
2013-07-23 16:44:00,95.0,0.0,29.90,WSW,240,6.0,10.0,30,-99.99,,,-99.99,,2013-07-23 23:44:00,
2013-07-23 16:52:00,95.0,0.0,29.90,West,271,8.0,10.0,29,-99.99,,,-99.99,,2013-07-23 23:52:00,
2013-07-23 17:00:00,95.0,0.0,29.89,West,260,5.0,9.0,33,-99.99,,,-99.99,,2013-07-24 00:00:00,
2013-07-23 17:08:00,95.0,0.0,29.89,WNW,287,3.0,7.0,31,-99.99,,,-99.99,,2013-07-24 00:08:00,
2013-07-23 17:16:00,94.0,0.0,29.89,NW,308,8.0,12.0,35,-99.99,,,-99.99,,2013-07-24 00:16:00,
2013-07-23 17:24:00,95.0,0.0,29.88,WNW,292,8.0,16.0,30,-99.99,,,-99.99,,2013-07-24 00:24:00,
2013-07-23 17:32:00,96.0,0.0,29.88,WNW,294,6.0,16.0,30,-99.99,,,-99.99,,2013-07-24 00:32:00,
2013-07-23 17:40:00,95.0,0.0,29.88,WNW,299,13.0,16.0,30,-99.99,,,-99.99,,2013-07-24 00:40:00,
2013-07-23 17:48:00,95.0,0.0,29.88,WNW,301,6.0,16.0,31,-99.99,,,-99.99,,2013-07-24 00:48:00,
2013-07-23 17:56:00,94.0,0.0,29.88,WNW,300,12.0,13.0,31,-99.99,,,-99.99,,2013-07-24 00:56:00,
2013-07-23 18:04:00,95.0,0.0,29.88,WNW,294,7.0,13.0,31,-99.99,,,-99.99,,2013-07-24 01:04:00,
2013-07-23 18:12:00,96.0,0.0,29.88,WNW,296,7.0,10.0,28,-99.99,,,-99.99,,2013-07-24 01:12:00,
2013-07-23 18:20:00,94.0,0.0,29.88,WNW,293,15.0,17.0,30,-99.99,,,-99.99,,2013-07-24 01:20:00,
2013-07-23 18:28:00,94.0,0.0,29.88,WNW,294,8.0,17.0,30,-99.99,,,-99.99,,2013-07-24 01:28:00,
2013-07-23 18:36:00,94.0,0.0,29.88,WNW,294,9.0,14.0,33,-99.99,,,-99.99,,2013-07-24 01:36:00,
2013-07-23 18:44:00,93.0,0.0,29.88,WNW,298,13.0,16.0,31,-99.99,,,-99.99,,2013-07-24 01:44:00,
2013-07-23 18:52:00,93.0,0.0,29.88,WNW,298,9.0,15.0,34,-99.99,,,-99.99,,2013-07-24 01:52:00,
2013-07-23 19:04:00,94.0,0.0,29.88,WNW,297,5.0,9.0,31,-99.99,,,-99.99,,2013-07-24 02:04:00,
2013-07-23 19:12:00,93.0,0.0,29.88,WNW,299,7.0,8.0,34,-99.99,,,-99.99,,2013-07-24 02:12:00,
2013-07-23 19:20:00,93.0,0.0,29.88,WNW,302,5.0,8.0,33,-99.99,,,-99.99,,2013-07-24 02:20:00,
2013-07-23 19:28:00,93.0,0.0,29.88,WNW,295,7.0,7.0,34,-99.99,,,-99.99,,2013-07-24 02:28:00,
2013-07-23 19:36:00,93.0,0.0,29.89,WNW,300,8.0,9.0,33,-99.99,,,-99.99,,2013-07-24 02:36:00,
2013-07-23 19:44:00,93.0,0.0,29.88,WNW,303,8.0,12.0,35,-99.99,,,-99.99,,2013-07-24 02:44:00,
2013-07-23 19:52:00,93.0,0.0,29.88,NW,307,10.0,17.0,31,-99.99,,,-99.99,,2013-07-24 02:52:00,
2013-07-23 20:00:00,92.0,0.0,29.88,NW,304,16.0,22.0,34,-99.99,,,-99.99,,2013-07-24 03:00:00,
2013-07-23 20:08:00,91.0,0.0,29.89,WNW,300,15.0,22.0,29,-99.99,,,-99.99,,2013-07-24 03:08:00,
2013-07-23 20:16:00,90.0,0.0,29.89,WNW,297,14.0,20.0,33,-99.99,,,-99.99,,2013-07-24 03:16:00,
2013-07-23 20:24:00,90.0,0.0,29.89,WNW,295,12.0,18.0,33,-99.99,,,-99.99,,2013-07-24 03:24:00,
2013-07-23 20:32:00,89.0,0.0,29.89,WNW,299,13.0,20.0,34,-99.99,,,-99.99,,2013-07-24 03:32:00,
2013-07-23 20:40:00,89.0,0.0,29.89,WNW,299,14.0,18.0,32,-99.99,,,-99.99,,2013-07-24 03:40:00,
2013-07-23 20:48:00,88.0,0.0,29.89,WNW,301,12.0,18.0,34,-99.99,,,-99.99,,2013-07-24 03:48:00,
2013-07-23 20:56:00,88.0,0.0,29.90,WNW,302,14.0,17.0,34,-99.99,,,-99.99,,2013-07-24 03:56:00,
2013-07-23 21:04:00,88.0,0.0,29.90,NW,305,8.0,16.0,35,-99.99,,,-99.99,,2013-07-24 04:04:00,
2013-07-23 21:08:00,88.0,0.0,29.90,NW,304,12.0,16.0,36,-99.99,,,-99.99,,2013-07-24 04:08:00,
2013-07-23 21:12:00,88.0,0.0,29.90,WNW,292,14.0,16.0,36,-99.99,,,-99.99,,2013-07-24 04:12:00,
2013-07-23 21:16:00,88.0,0.0,29.91,WNW,299,10.0,16.0,33,-99.99,,,-99.99,,2013-07-24 04:16:00,
2013-07-23 21:20:00,88.0,0.0,29.91,NW,308,7.0,16.0,35,-99.99,,,-99.99,,2013-07-24 04:20:00,
2013-07-23 21:28:00,88.0,0.0,29.91,WNW,302,7.0,15.0,34,-99.99,,,-99.99,,2013-07-24 04:28:00,
2013-07-23 21:36:00,88.0,0.0,29.91,NW,305,12.0,15.0,33,-99.99,,,-99.99,,2013-07-24 04:36:00,
2013-07-23 21:44:00,88.0,0.0,29.91,WNW,291,9.0,14.0,32,-99.99,,,-99.99,,2013-07-24 04:44:00,
2013-07-23 21:52:00,87.0,0.0,29.92,NW,307,6.0,14.0,32,-99.99,,,-99.99,,2013-07-24 04:52:00,
2013-07-23 22:00:00,87.0,0.0,29.92,NW,306,10.0,14.0,33,-99.99,,,-99.99,,2013-07-24 05:00:00,
2013-07-23 22:08:00,86.0,0.0,29.92,NW,304,7.0,12.0,36,-99.99,,,-99.99,,2013-07-24 05:08:00,
2013-07-23 22:16:00,86.0,0.0,29.92,NW,305,13.0,14.0,34,-99.99,,,-99.99,,2013-07-24 05:16:00,
2013-07-23 22:24:00,86.0,0.0,29.92,WNW,303,6.0,14.0,33,-99.99,,,-99.99,,2013-07-24 05:24:00,
2013-07-23 22:32:00,86.0,0.0,29.92,WNW,299,8.0,16.0,33,-99.99,,,-99.99,,2013-07-24 05:32:00,
2013-07-23 22:40:00,85.0,0.0,29.92,NW,304,10.0,14.0,35,-99.99,,,-99.99,,2013-07-24 05:40:00,
2013-07-23 22:48:00,85.0,0.0,29.93,WNW,296,9.0,14.0,38,-99.99,,,-99.99,,2013-07-24 05:48:00,
2013-07-23 22:56:00,85.0,0.0,29.92,WNW,301,12.0,16.0,35,-99.99,,,-99.99,,2013-07-24 05:56:00,
2013-07-23 23:04:00,84.0,0.0,29.93,WNW,303,7.0,16.0,36,-99.99,,,-99.99,,2013-07-24 06:04:00,
2013-07-23 23:12:00,84.0,0.0,29.93,WNW,300,9.0,13.0,35,-99.99,,,-99.99,,2013-07-24 06:12:00,
2013-07-23 23:20:00,84.0,0.0,29.93,NW,305,9.0,13.0,39,-99.99,,,-99.99,,2013-07-24 06:20:00,
2013-07-23 23:28:00,84.0,0.0,29.94,WNW,302,7.0,10.0,36,-99.99,,,-99.99,,2013-07-24 06:28:00,
2013-07-23 23:36:00,83.0,0.0,29.94,NW,306,8.0,12.0,38,-99.99,,,-99.99,,2013-07-24 06:36:00,
2013-07-23 23:44:00,83.0,0.0,29.94,WNW,297,6.0,13.0,37,-99.99,,,-99.99,,2013-07-24 06:44:00,
2013-07-23 23:52:00,83.0,0.0,29.94,NW,315,7.0,13.0,37,-99.99,,,-99.99,,2013-07-24 06:52:00,